Wind_Speed
22 22 21 20 20 22 21 20 20 19 19 19 20 20 17 18 19 20 20 18 16 14 13 11 10 10 9 9 10 12 14 15 14 16 17 16 15 15 16 15 17 15 15
20 22 22 22 22 24 24 23 22 22 20 20 21 21 21 18 17 18 19 19 19 17 15 14 13 12 11 11 11 13 15 15 16 16 17 17 15 14 15 15 15 12 16
19 20 19 22 24 26 26 25 23 24 22 22 23 23 22 21 19 19 18 20 19 17 17 16 16 15 14 13 13 14 15 15 17 19 19 17 15 14 13 12 13 15 18
25 25 23 25 25 26 27 26 24 22 22 23 23 22 22 21 21 19 19 17 18 18 18 17 17 17 16 14 14 15 16 17 17 19 19 17 15 13 13 12 12 13 14
26 26 25 26 26 26 28 27 26 24 24 23 24 22 20 19 20 20 20 20 18 18 17 17 17 17 17 16 15 15 17 18 18 19 17 16 16 12 13 12 14 15 13
26 26 29 28 28 28 29 29 28 27 27 25 24 23 20 20 19 18 17 18 19 19 19 18 18 18 17 16 15 17 18 19 20 20 15 20 18 20 12 12 12 12 15
29 28 31 29 30 30 31 31 30 29 27 26 25 26 24 21 21 21 18 17 16 17 17 18 18 18 18 17 16 17 19 21 20 23 17 18 21 21 11 16 14 12 12
28 28 31 30 30 30 31 33 33 31 29 28 28 28 27 26 23 21 20 18 17 17 18 19 19 19 19 19 19 18 20 21 23 23 19 19 18 13 16 13 18 15 11
30 29 29 30 30 30 31 33 33 32 32 31 30 30 28 28 27 24 23 21 19 20 20 20 21 22 21 21 18 18 20 22 25 25 18 21 17 32 10 22 18 17 13
31 29 31 32 31 32 32 34 34 34 33 32 32 31 29 29 27 25 23 23 22 21 20 21 22 22 22 21 18 18 20 23 26 26 22 18 19 22 24 22 28 20 16
33 31 31 34 32 33 35 34 35 36 35 34 32 31 29 30 30 27 25 25 24 23 23 21 22 22 22 21 19 20 22 24 27 28 26 18 19 24 21 16 14 17 18
35 39 36 37 38 37 38 37 37 38 38 37 34 32 31 30 30 29 28 27 26 24 23 24 22 21 23 20 22 21 24 26 29 26 25 25 24 22 20 20 23 26 23
42 39 40 40 40 42 41 41 39 39 40 39 37 34 32 31 30 30 31 32 30 27 24 24 22 22 21 23 23 22 24 27 29 29 23 24 22 24 20 26 28 23 20
43 46 42 42 41 42 42 42 43 43 42 42 40 36 33 32 30 31 33 34 34 32 29 25 24 24 23 23 24 26 26 27 27 28 26 24 23 25 25 24 26 21 21
51 54 49 42 43 42 43 47 47 47 45 43 42 39 35 33 32 32 32 34 36 34 34 32 28 25 24 25 27 25 27 28 29 28 27 25 23 26 28 27 26 25 27
47 47 47 51 45 46 43 47 49 54 45 44 46 43 35 35 34 33 33 35 36 36 35 38 36 31 27 27 26 28 27 27 28 30 26 27 24 27 29 29 27 29 27
47 46 44 38 38 43 49 55 50 61 50 43 51 41 35 35 36 35 35 36 37 38 34 35 35 30 29 29 27 29 29 28 27 32 32 28 27 27 29 30 30 27 26
44 42 40 40 38 40 47 54 54 57 46 38 43 41 39 38 38 38 38 36 39 39 37 32 34 35 34 31 29 29 29 29 28 29 34 29 30 30 30 32 30 29 30
44 41 36 42 42 43 47 50 54 53 56 48 44 45 46 45 44 40 38 37 40 43 43 41 40 39 38 36 35 31 29 30 29 29 31 32 30 31 30 30 29 27 31
50 43 42 46 46 44 45 48 51 53 52 51 50 49 47 50 45 44 40 39 42 45 46 46 42 41 42 39 37 34 31 30 31 29 29 31 31 32 29 27 26 28 30
56 43 47 47 46 45 44 46 49 51 52 53 53 52 49 46 50 46 48 44 43 47 48 48 48 45 42 41 40 35 32 30 31 29 31 33 34 31 30 26 25 27 27
59 43 48 47 45 46 45 46 48 50 50 51 52 52 52 51 50 50 53 55 47 54 54 50 51 48 45 43 42 40 37 31 29 30 33 32 32 32 30 27 24 24 25
50 45 50 47 46 45 46 46 46 48 49 50 51 52 52 52 51 52 51 51 51 52 59 54 50 52 51 47 44 42 39 35 32 32 33 33 34 36 30 27 24 24 24
41 49 50 50 47 46 46 47 47 47 48 48 48 49 50 52 51 52 53 51 50 51 52 54 58 50 49 52 49 44 43 40 35 34 35 34 36 36 32 28 26 24 24
39 45 44 45 45 45 46 46 47 48 48 48 48 49 50 52 52 52 53 53 52 52 52 54 49 54 56 56 52 47 47 44 41 34 36 35 36 34 34 29 28 27 25
38 41 42 43 45 46 47 46 46 47 47 48 49 50 51 52 52 52 53 54 54 54 53 52 53 56 57 57 53 52 49 47 42 38 39 40 38 37 35 31 29 28 26
Wind_Direction
275 273 275 273 275 277 280 281 281 288 290 289 284 284 281 274 269 266 266 270 275 280 292 303 313 320 326 332 339 335 341 341 329 321 311 304 295 296 309 313 320 309 318
281 278 276 274 275 276 277 278 280 282 283 282 286 288 287 286 276 268 265 266 270 276 282 291 298 307 316 319 326 326 333 336 332 322 309 305 310 315 312 311 311 302 309
278 273 268 270 271 272 274 275 275 279 281 280 282 288 296 291 285 276 268 263 264 270 277 285 293 297 306 314 317 319 324 324 325 322 309 306 307 307 306 304 300 298 302
273 265 265 267 269 269 272 273 273 278 280 280 281 283 288 292 285 277 270 268 265 267 274 279 284 290 296 300 305 308 312 313 314 316 306 316 301 299 309 303 291 297 303
265 269 265 265 267 269 271 274 274 275 275 278 280 283 289 288 289 280 277 273 270 272 277 279 281 285 286 286 292 298 301 304 307 313 312 319 290 281 289 302 307 299 305
273 269 268 266 264 266 268 271 271 272 273 275 278 282 281 281 284 289 286 283 282 280 282 281 280 279 275 276 281 287 290 296 301 300 311 312 303 279 271 303 299 292 307
269 265 265 265 266 265 266 268 270 270 272 273 275 278 279 276 276 280 286 284 282 281 280 283 283 281 278 277 274 275 282 287 291 293 306 312 305 244 303 303 300 301 300
268 265 265 265 265 266 268 270 270 271 271 272 274 276 279 278 274 275 279 284 288 291 292 291 284 284 285 283 282 281 280 280 282 287 299 300 281 283 302 282 304 297 292
261 263 263 264 263 263 267 268 270 271 272 274 274 276 276 278 279 280 279 279 284 288 291 293 293 289 286 284 282 275 273 271 276 280 291 298 309 273 298 305 300 290 279
264 265 266 265 265 266 264 265 267 268 269 271 273 274 275 275 275 278 280 279 279 281 287 290 291 291 291 288 283 277 277 271 275 278 287 292 292 294 301 294 302 281 276
269 267 263 264 263 263 263 264 266 266 266 266 268 271 271 273 275 275 274 276 279 284 286 284 287 287 286 286 286 286 281 277 277 281 286 290 287 295 307 294 305 284 284
262 267 265 265 264 260 260 261 261 263 264 264 263 265 266 268 272 275 276 276 276 279 283 284 285 284 284 281 287 287 285 283 280 279 282 288 296 298 292 278 298 289 283
263 261 266 268 268 267 263 260 259 260 262 262 262 262 262 265 269 274 277 282 284 286 283 281 281 280 281 284 286 289 283 282 281 278 274 279 293 293 292 300 296 287 288
271 268 261 264 265 265 267 267 261 259 256 258 259 260 260 260 263 268 274 278 280 284 286 285 282 278 277 279 280 288 288 285 284 279 274 278 280 284 286 295 289 283 281
265 264 263 259 263 267 268 265 261 257 256 257 259 258 258 258 260 261 266 272 277 278 283 285 278 277 273 272 276 276 285 292 286 280 273 276 280 285 289 292 291 274 279
268 272 275 268 261 257 262 262 260 249 248 251 254 256 256 258 258 260 261 265 271 276 276 278 276 277 273 271 273 278 281 285 286 279 270 276 278 279 284 288 287 279 275
269 271 276 277 271 266 259 266 267 284 243 245 250 239 255 257 257 259 261 264 266 272 273 275 275 270 267 267 269 272 277 282 285 282 273 275 275 278 283 289 287 285 277
273 272 272 273 269 261 260 264 261 263 269 266 257 261 265 262 260 260 260 261 263 263 266 268 272 271 268 267 269 267 273 279 282 284 276 271 276 280 287 289 289 287 284
270 273 267 264 263 263 261 261 264 261 264 265 258 257 260 260 262 259 259 258 259 263 263 265 267 268 268 269 270 268 269 273 277 282 275 270 271 279 285 290 291 287 286
267 269 266 263 263 260 260 261 261 263 265 265 264 263 259 256 261 268 264 262 264 265 264 264 265 264 266 267 268 269 270 270 271 276 277 271 271 278 282 284 287 290 288
263 267 261 263 262 260 257 258 259 257 258 260 261 261 262 262 256 264 264 263 260 262 261 260 261 261 260 265 267 272 270 266 270 273 272 269 271 277 279 277 283 290 287
265 268 261 260 259 260 258 257 258 259 258 257 258 260 261 260 260 255 260 263 260 262 258 255 255 257 258 259 262 264 265 261 264 267 270 268 271 277 276 275 280 287 288
274 264 265 263 260 261 261 257 256 256 257 257 256 256 258 258 259 259 258 260 260 261 253 245 250 255 257 254 255 260 264 265 256 261 265 264 261 268 273 275 275 277 284
263 260 263 264 265 263 260 261 259 258 258 257 256 256 256 256 255 257 259 256 257 257 259 261 247 245 257 257 255 256 261 262 258 256 258 260 262 267 273 268 270 275 280
252 256 258 261 262 261 259 257 257 257 258 258 258 258 257 257 257 257 256 257 256 255 254 251 253 256 250 252 253 253 256 260 259 253 256 257 258 263 272 269 265 269 274
256 259 259 257 258 259 259 259 259 258 258 258 259 259 259 259 258 258 257 255 255 253 252 250 249 247 243 247 249 251 254 257 259 257 254 251 253 253 262 267 263 266 273
Height
5872 5872 5872 5871 5871 5870 5870 5870 5870 5871 5870 5869 5868 5868 5868 5869 5869 5869 5869 5869 5869 5869 5869 5869 5868 5867 5864 5863 5863 5863 5860 5859 5857 5854 5852 5850 5848 5846 5846 5845 5844 5845 5845
5869 5869 5869 5869 5869 5868 5867 5867 5868 5868 5868 5867 5866 5865 5865 5866 5866 5866 5866 5866 5866 5867 5867 5867 5867 5865 5863 5863 5861 5860 5858 5856 5855 5852 5849 5848 5847 5845 5845 5844 5844 5844 5844
5867 5864 5865 5866 5866 5865 5864 5865 5865 5865 5865 5865 5864 5864 5863 5863 5863 5864 5863 5863 5863 5864 5864 5864 5864 5863 5862 5861 5860 5858 5856 5854 5851 5849 5847 5846 5845 5845 5844 5844 5843 5843 5843
5861 5861 5862 5861 5862 5861 5861 5862 5862 5862 5861 5861 5861 5860 5860 5860 5860 5860 5860 5860 5860 5860 5861 5861 5861 5861 5860 5859 5858 5855 5853 5851 5848 5846 5844 5844 5843 5842 5841 5841 5840 5841 5840
5858 5858 5858 5857 5857 5858 5858 5858 5858 5858 5857 5857 5857 5857 5857 5857 5857 5857 5857 5857 5857 5857 5858 5858 5858 5858 5857 5857 5856 5853 5850 5848 5846 5844 5842 5840 5838 5837 5838 5837 5838 5839 5838
5855 5855 5853 5853 5854 5854 5853 5853 5854 5854 5853 5853 5853 5854 5854 5853 5853 5853 5853 5854 5854 5854 5854 5854 5854 5854 5854 5854 5853 5850 5846 5843 5843 5840 5841 5838 5837 5833 5834 5833 5833 5835 5835
5847 5849 5848 5849 5849 5849 5849 5848 5849 5849 5850 5849 5849 5849 5850 5850 5850 5850 5849 5849 5850 5850 5851 5851 5851 5851 5851 5851 5850 5846 5843 5840 5839 5836 5838 5836 5834 5834 5830 5832 5832 5831 5832
5841 5843 5842 5844 5843 5844 5844 5844 5844 5844 5845 5845 5845 5845 5846 5846 5846 5846 5846 5846 5846 5846 5847 5847 5847 5847 5847 5847 5846 5842 5839 5837 5835 5833 5834 5835 5833 5829 5829 5828 5830 5828 5829
5835 5836 5837 5838 5838 5838 5838 5838 5838 5839 5839 5840 5840 5840 5840 5841 5841 5842 5841 5842 5842 5842 5842 5843 5843 5843 5843 5843 5842 5838 5835 5833 5830 5828 5831 5831 5830 5824 5826 5829 5827 5825 5825
5830 5831 5831 5831 5833 5832 5830 5831 5831 5832 5833 5834 5835 5835 5835 5835 5835 5836 5836 5837 5837 5837 5838 5838 5838 5838 5839 5838 5837 5835 5832 5829 5826 5824 5827 5828 5827 5823 5823 5823 5822 5822 5823
5823 5825 5825 5824 5825 5825 5824 5824 5825 5825 5826 5826 5827 5828 5829 5829 5829 5830 5831 5831 5831 5832 5833 5833 5833 5834 5834 5834 5834 5832 5829 5825 5822 5821 5822 5823 5823 5823 5821 5820 5819 5820 5819
5817 5815 5818 5818 5816 5817 5817 5817 5817 5817 5818 5819 5820 5820 5821 5822 5823 5823 5824 5825 5826 5827 5827 5828 5829 5829 5829 5829 5829 5828 5826 5823 5819 5819 5818 5815 5815 5817 5817 5817 5817 5816 5815
5807 5809 5810 5811 5810 5809 5810 5810 5810 5810 5810 5811 5813 5814 5814 5815 5816 5817 5817 5817 5819 5820 5821 5822 5822 5824 5824 5824 5824 5824 5821 5819 5816 5814 5816 5814 5811 5810 5811 5812 5813 5812 5811
5798 5797 5802 5802 5803 5802 5800 5803 5802 5801 5800 5802 5804 5806 5807 5808 5809 5809 5810 5810 5811 5813 5813 5815 5817 5817 5818 5818 5819 5818 5816 5815 5813 5811 5811 5810 5810 5808 5807 5809 5810 5808 5805
5787 5785 5788 5794 5794 5793 5791 5791 5792 5792 5792 5794 5794 5796 5799 5801 5801 5802 5803 5803 5803 5805 5806 5808 5809 5810 5812 5811 5812 5813 5811 5810 5809 5807 5806 5806 5806 5805 5804 5805 5804 5804 5801
5776 5776 5777 5784 5783 5784 5780 5778 5778 5775 5779 5782 5783 5785 5789 5791 5793 5794 5796 5797 5796 5797 5799 5799 5801 5803 5805 5805 5805 5805 5806 5806 5804 5801 5802 5801 5803 5800 5799 5800 5799 5798 5797
5767 5767 5769 5772 5774 5772 5771 5767 5773 5760 5767 5770 5769 5770 5779 5783 5784 5786 5788 5788 5789 5789 5790 5790 5792 5794 5796 5798 5799 5798 5799 5800 5798 5796 5796 5795 5795 5794 5793 5793 5793 5792 5793
5759 5759 5761 5758 5760 5762 5761 5759 5763 5757 5756 5760 5760 5766 5768 5773 5775 5777 5778 5780 5780 5781 5783 5784 5783 5785 5786 5788 5790 5791 5791 5791 5791 5790 5790 5791 5786 5784 5785 5784 5782 5783 5784
5748 5751 5751 5748 5746 5747 5749 5750 5749 5753 5753 5755 5756 5756 5758 5760 5763 5767 5769 5771 5771 5771 5774 5775 5775 5776 5776 5778 5779 5782 5783 5784 5783 5784 5784 5785 5784 5780 5779 5777 5777 5776 5776
5738 5738 5738 5737 5738 5736 5737 5739 5740 5740 5740 5744 5747 5749 5749 5748 5749 5753 5758 5761 5761 5762 5764 5765 5765 5766 5767 5767 5769 5771 5774 5776 5775 5777 5777 5777 5779 5776 5774 5772 5772 5771 5769
5725 5727 5724 5725 5726 5726 5726 5726 5728 5731 5733 5734 5734 5736 5740 5742 5740 5742 5745 5749 5751 5751 5752 5753 5753 5755 5756 5757 5757 5761 5764 5767 5768 5768 5768 5770 5771 5771 5770 5767 5767 5766 5763
5710 5712 5712 5712 5713 5715 5716 5716 5716 5718 5722 5723 5724 5725 5726 5729 5732 5733 5734 5736 5739 5741 5738 5739 5740 5743 5746 5747 5746 5749 5753 5758 5760 5760 5760 5762 5763 5764 5763 5761 5761 5760 5758
5699 5696 5698 5699 5700 5703 5704 5704 5705 5706 5707 5710 5712 5713 5714 5717 5720 5722 5725 5727 5729 5727 5720 5724 5727 5731 5733 5735 5736 5737 5741 5747 5751 5751 5752 5754 5754 5757 5757 5755 5755 5755 5753
5683 5681 5683 5685 5687 5689 5690 5692 5692 5693 5695 5696 5698 5700 5701 5703 5706 5707 5708 5711 5714 5717 5716 5718 5715 5718 5720 5723 5726 5727 5731 5735 5740 5742 5742 5744 5745 5747 5749 5750 5748 5748 5747
5667 5668 5669 5671 5672 5674 5676 5678 5679 5680 5681 5682 5683 5685 5687 5689 5692 5694 5695 5697 5700 5702 5703 5704 5707 5708 5711 5715 5717 5718 5719 5723 5728 5733 5734 5735 5736 5738 5739 5742 5742 5740 5740
5655 5657 5658 5658 5659 5660 5663 5664 5666 5667 5668 5670 5670 5671 5673 5675 5678 5681 5682 5683 5686 5688 5690 5692 5694 5694 5699 5702 5704 5706 5709 5713 5719 5722 5724 5725 5726 5729 5731 5733 5735 5733 5732